Home   Weather   Sedona   Past weeks

Flag for USA Past Weather in Sedona, Arizona, USA — Yesterday and Last 2 Weeks

Now
43 °F

Clear.


Feels Like: 39 °F
Forecast: 40 / 63 °F
Wind: 6 mph from Northeast

Location: Sedona Airport

Current Time: Apr 29, 2017 at 2:28:17 am

Latest Report: Apr 29, 2017 at 1:55 am


Visibility: 10 mi

Pressure: 29.89 "Hg (25.55 "Hg at 1282m altitude)

Humidity: 31%

Dew Point: 14 °F

Location of SedonaLocation

Past Weather in Sedona — Graph

°F

Sedona Temperature Yesterday

Maximum temperature yesterday: 64 °F (at 1:35 pm)
Minimum temperature yesterday: 43 °F (at 11:55 pm)
Average temperature yesterday: 56 °F

High & Low Weather Summary for the Past Weeks

 TemperatureHumidityPressure
High81 °F (Apr 22, 3:35 pm)51% (Apr 25, 5:35 am)30.15 "Hg (Apr 25, 5:35 am)
Low43 °F (Apr 28, 11:55 pm)9% (Apr 21, 3:55 pm)29.69 "Hg (Apr 28, 2:55 pm)
Average64 °F23%29.96 "Hg
* Reported Apr 14 1:15 am — Apr 29 1:35 am, Sedona, Weather by CustomWeather, © 2017

Note: Actual official high and low records may vary slightly from our data, if they occured in-between our weather recording intervals... More about our weather records

Advertising

Sedona Weather History for the Previous 24 Hours

Scroll right to see more
 ConditionsComfort  
Time TempWeatherWind HumidityBarometerVisibility
1:35 am
Sat, Apr 29
43 °FClear.7 mph31%29.89 "Hg10 mi
12:35 am43 °FClear.6 mph31%29.89 "Hg10 mi
12:15 am43 °FClear.7 mph31%29.88 "Hg10 mi
11:55 pm
Fri, Apr 28
43 °FClear.5 mph31%29.88 "Hg10 mi
11:35 pm45 °FClear.6 mph29%29.88 "Hg10 mi
11:15 pm45 °FClear.13 mph29%29.87 "Hg10 mi
10:55 pm46 °FClear.13 mph27%29.87 "Hg10 mi
10:35 pm46 °FClear.13 mph27%29.87 "Hg10 mi
10:15 pm46 °FClear.14 mph27%29.88 "Hg10 mi
9:55 pm46 °FClear.16 mph25%29.87 "Hg10 mi
9:35 pm46 °FClear.15 mph25%29.87 "Hg10 mi
9:15 pm46 °FClear.12 mph25%29.87 "Hg10 mi
8:55 pm48 °FClear.12 mph23%29.85 "Hg10 mi
8:35 pm48 °FClear.10 mph23%29.85 "Hg10 mi
8:15 pm50 °FClear.15 mph22%29.84 "Hg10 mi
7:55 pm50 °FClear.9 mph22%29.83 "Hg10 mi
7:35 pm50 °FClear.14 mph20%29.81 "Hg10 mi
6:55 pm52 °FSunny.21 mph19%29.79 "Hg10 mi
6:35 pm54 °FSunny.25 mph16%29.77 "Hg10 mi
6:15 pm55 °FSunny.18 mph15%29.76 "Hg10 mi
5:55 pm55 °FSunny.18 mph15%29.74 "Hg10 mi
5:15 pm59 °FScattered clouds.22 mph16%29.73 "Hg10 mi
4:55 pm59 °FScattered clouds.17 mph14%29.73 "Hg10 mi
4:35 pm61 °FSunny.25 mph11%29.70 "Hg10 mi
4:15 pm61 °FSunny.22 mph10%29.70 "Hg10 mi
3:55 pm61 °FSunny.18 mph10%29.70 "Hg10 mi
3:35 pm63 °FSunny.23 mph9%29.70 "Hg10 mi
3:15 pm63 °FSunny.26 mph9%29.69 "Hg10 mi
2:55 pm63 °FSunny.23 mph10%29.69 "Hg10 mi
2:35 pm63 °FSunny.15 mph10%29.70 "Hg10 mi
2:15 pm64 °FSunny.17 mph11%29.70 "Hg10 mi
1:55 pm64 °FSunny.22 mph11%29.71 "Hg10 mi
1:35 pm64 °FSunny.20 mph12%29.72 "Hg10 mi
12:55 pm63 °FSunny.20 mph15%29.73 "Hg10 mi
12:35 pm63 °FSunny.14 mph15%29.74 "Hg10 mi
12:15 pm63 °FSunny.15 mph16%29.75 "Hg10 mi
11:55 am63 °FScattered clouds.16 mph17%29.76 "Hg10 mi
11:35 am61 °FPartly sunny.14 mph20%29.76 "Hg10 mi
10:55 am59 °FPartly sunny.12 mph20%29.78 "Hg10 mi
10:35 am63 °FScattered clouds.12 mph19%29.78 "Hg10 mi
10:15 am59 °FPartly sunny.12 mph21%29.79 "Hg10 mi
9:55 am59 °FScattered clouds.9 mph21%29.79 "Hg10 mi
9:35 am57 °FPartly sunny.14 mph21%29.79 "Hg10 mi
9:15 am57 °FScattered clouds.10 mph21%29.79 "Hg10 mi
8:55 am57 °FMostly cloudy.No wind21%29.79 "Hg10 mi
8:35 am55 °FOvercast.5 mph24%29.80 "Hg10 mi
8:15 am54 °FOvercast.7 mph26%29.79 "Hg10 mi
7:55 am54 °FOvercast.9 mph26%29.79 "Hg10 mi
7:35 am54 °FOvercast.5 mph26%29.79 "Hg10 mi
7:15 am54 °FOvercast.7 mph26%29.77 "Hg10 mi
6:55 am54 °FOvercast.10 mph24%29.77 "Hg10 mi
6:35 am54 °FOvercast.7 mph26%29.76 "Hg10 mi
6:15 am54 °FOvercast.5 mph28%29.74 "Hg10 mi
5:55 am54 °FOvercast.5 mph26%29.74 "Hg10 mi
5:35 am54 °FOvercast.No wind28%29.73 "Hg10 mi
5:15 am54 °FOvercast.3 mph28%29.73 "Hg10 mi
4:55 am55 °FOvercast.5 mph24%29.72 "Hg10 mi
4:35 am54 °FPassing clouds.7 mph28%29.72 "Hg10 mi
4:15 am55 °FPassing clouds.6 mph33%29.73 "Hg10 mi
3:55 am55 °FOvercast.6 mph36%29.73 "Hg10 mi
3:35 am55 °FPassing clouds.8 mph36%29.73 "Hg10 mi
3:15 am55 °FClear.7 mph38%29.72 "Hg10 mi
2:55 am57 °FClear.7 mph36%29.72 "Hg10 mi
2:35 am57 °FClear.7 mph33%29.73 "Hg10 mi
2:15 am57 °FClear.8 mph33%29.72 "Hg10 mi
Weather by CustomWeather, © 2017

See weather overviewHow to use our weather pages